• In Hungary
  • List of Countries
  • For 7 days
  • Water Temperature
  • Satellite Maps
  • Weather Map
  • News
  • Weather Widgets
  • user-avatar
    Login

    Hourly Weather Santa Cruz

    Today, 16 December, Saturday

    Time Temperature Precipitation Wind Pressure Humidity
    00:00 +24°C° 0 mm 3 mps 736 mmHg 81%
    01:00 +24°C° 0 mm 3 mps 736 mmHg 82%
    02:00 +24°C° 0 mm 3 mps 736 mmHg 83%
    03:00 +23°C° 0 mm 4 mps 735 mmHg 85%
    04:00 +24°C° 0 mm 3 mps 736 mmHg 85%
    05:00 +22°C° 0 mm 3 mps 736 mmHg 85%
    06:00 +22°C° 0 mm 3 mps 736 mmHg 87%
    07:00 +25°C° 0 mm 4 mps 736 mmHg 80%
    08:00 +27°C° 0 mm 4 mps 736 mmHg 73%
    09:00 +29°C° 0 mm 5 mps 737 mmHg 66%
    10:00 +30°C° 0 mm 5 mps 736 mmHg 62%
    11:00 +32°C° 0 mm 5 mps 736 mmHg 58%
    12:00 +33°C° 0 mm 5 mps 736 mmHg 54%
    13:00 +33°C° 0 mm 5 mps 735 mmHg 56%
    14:00 +33°C° 0 mm 5 mps 735 mmHg 57%
    15:00 +32°C° 0 mm 5 mps 735 mmHg 58%
    16:00 +30°C° 0 mm 4 mps 735 mmHg 64%
    17:00 +28°C° 0 mm 4 mps 735 mmHg 70%
    18:00 +26°C° 0 mm 3 mps 735 mmHg 76%
    19:00 +26°C° 0 mm 4 mps 735 mmHg 77%
    20:00 +26°C° 0 mm 4 mps 736 mmHg 78%
    21:00 +25°C° 0 mm 4 mps 736 mmHg 79%
    22:00 +25°C° 0 mm 4 mps 736 mmHg 78%
    23:00 +25°C° 0 mm 4 mps 736 mmHg 78%

    Tomorrow, 17 December, Sunday

    Time Temperature Precipitation Wind Pressure Humidity
    00:00 +25°C° 0 mm 4 mps 736 mmHg 77%
    01:00 +25°C° 0 mm 4 mps 736 mmHg 77%
    02:00 +25°C° 0 mm 4 mps 735 mmHg 78%
    03:00 +23°C° 0 mm 4 mps 735 mmHg 78%
    04:00 +23°C° 0 mm 4 mps 735 mmHg 78%
    05:00 +23°C° 0 mm 4 mps 735 mmHg 78%
    06:00 +23°C° 0 mm 4 mps 736 mmHg 78%
    07:00 +26°C° 0 mm 5 mps 736 mmHg 73%
    08:00 +27°C° 0 mm 5 mps 737 mmHg 68%
    09:00 +29°C° 0 mm 6 mps 737 mmHg 62%
    10:00 +30°C° 0 mm 6 mps 737 mmHg 58%
    11:00 +32°C° 0 mm 6 mps 736 mmHg 54%
    12:00 +33°C° 0 mm 6 mps 736 mmHg 51%
    13:00 +33°C° 0 mm 6 mps 735 mmHg 53%
    14:00 +33°C° 0 mm 5 mps 735 mmHg 55%
    15:00 +32°C° 0 mm 5 mps 734 mmHg 57%
    16:00 +30°C° 0 mm 5 mps 734 mmHg 63%
    17:00 +28°C° 0 mm 5 mps 734 mmHg 69%
    18:00 +26°C° 0 mm 4 mps 734 mmHg 74%
    19:00 +26°C° 0 mm 4 mps 735 mmHg 75%
    20:00 +26°C° 0 mm 4 mps 735 mmHg 76%
    21:00 +26°C° 0 mm 4 mps 736 mmHg 77%
    22:00 +25°C° 0 mm 4 mps 736 mmHg 79%
    23:00 +25°C° 0 mm 4 mps 736 mmHg 80%

    Day after tomorrow, 18 December, Monday

    Time Temperature Precipitation Wind Pressure Humidity
    00:00 +25°C° 0 mm 3 mps 736 mmHg 81%
    01:00 +25°C° 0 mm 3 mps 736 mmHg 82%
    02:00 +25°C° 0 mm 3 mps 735 mmHg 82%
    03:00 +24°C° 0 mm 3 mps 735 mmHg 83%
    04:00 +24°C° 0 mm 3 mps 735 mmHg 83%
    05:00 +24°C° 0 mm 3 mps 735 mmHg 82%
    06:00 +24°C° 0 mm 3 mps 736 mmHg 82%
    07:00 +26°C° 0 mm 4 mps 736 mmHg 76%
    08:00 +28°C° 0 mm 4 mps 737 mmHg 70%
    09:00 +29°C° 0 mm 5 mps 738 mmHg 65%
    10:00 +30°C° 0 mm 5 mps 737 mmHg 63%
    11:00 +32°C° 0 mm 6 mps 737 mmHg 60%
    12:00 +32°C° 0 mm 6 mps 737 mmHg 58%
    13:00 +32°C° 0 mm 5 mps 736 mmHg 58%
    14:00 +32°C° 0 mm 5 mps 735 mmHg 57%
    15:00 +32°C° 0 mm 5 mps 735 mmHg 56%
    16:00 +30°C° 0 mm 4 mps 735 mmHg 62%
    17:00 +28°C° 0 mm 4 mps 735 mmHg 69%
    18:00 +26°C° 0 mm 4 mps 735 mmHg 76%
    19:00 +26°C° 0 mm 3 mps 736 mmHg 78%
    20:00 +25°C° 0 mm 3 mps 737 mmHg 79%
    21:00 +25°C° 0 mm 3 mps 737 mmHg 81%
    22:00 +25°C° 0 mm 3 mps 737 mmHg 82%
    23:00 +25°C° 0 mm 3 mps 737 mmHg 83%

    19 December, Tuesday

    Time Temperature Precipitation Wind Pressure Humidity
    00:00 +24°C° 0 mm 2 mps 737 mmHg 84%
    01:00 +24°C° 0 mm 2 mps 736 mmHg 85%
    02:00 +24°C° 0 mm 2 mps 736 mmHg 85%
    03:00 +24°C° 0 mm 2 mps 736 mmHg 86%
    04:00 +24°C° 0 mm 2 mps 736 mmHg 86%
    05:00 +23°C° 0 mm 2 mps 736 mmHg 86%
    06:00 +23°C° 0 mm 2 mps 736 mmHg 86%
    07:00 +25°C° 0 mm 3 mps 737 mmHg 79%
    08:00 +27°C° 0 mm 3 mps 737 mmHg 71%
    09:00 +29°C° 0 mm 4 mps 738 mmHg 64%
    10:00 +30°C° 0 mm 4 mps 737 mmHg 60%
    11:00 +33°C° 0 mm 4 mps 737 mmHg 55%
    12:00 +34°C° 0 mm 4 mps 736 mmHg 51%
    13:00 +33°C° 0 mm 4 mps 736 mmHg 52%
    14:00 +33°C° 0 mm 5 mps 735 mmHg 53%
    15:00 +33°C° 0 mm 5 mps 734 mmHg 54%
    16:00 +30°C° 0 mm 4 mps 734 mmHg 62%
    17:00 +28°C° 0 mm 4 mps 735 mmHg 69%
    18:00 +27°C° 0 mm 3 mps 735 mmHg 76%
    19:00 +26°C° 0 mm 3 mps 736 mmHg 78%
    20:00 +25°C° 0 mm 2 mps 736 mmHg 80%
    21:00 +25°C° 0 mm 2 mps 737 mmHg 83%
    22:00 +24°C° 0 mm 2 mps 737 mmHg 84%
    23:00 +24°C° 0 mm 2 mps 736 mmHg 85%

    20 December, Wednesday

    Time Temperature Precipitation Wind Pressure Humidity
    00:00 +24°C° 0 mm 2 mps 736 mmHg 86%
    01:00 +24°C° 0 mm 2 mps 736 mmHg 86%
    02:00 +22°C° 0 mm 3 mps 735 mmHg 86%
    03:00 +22°C° 0 mm 3 mps 735 mmHg 87%
    04:00 +22°C° 0 mm 3 mps 735 mmHg 86%
    05:00 +22°C° 0 mm 3 mps 736 mmHg 85%
    06:00 +24°C° 0 mm 3 mps 736 mmHg 85%
    07:00 +25°C° 0 mm 3 mps 737 mmHg 78%
    08:00 +27°C° 0 mm 4 mps 737 mmHg 71%
    09:00 +29°C° 0 mm 4 mps 738 mmHg 64%
    10:00 +30°C° 0 mm 4 mps 737 mmHg 60%
    11:00 +32°C° 0 mm 4 mps 736 mmHg 57%
    12:00 +34°C° 0 mm 4 mps 736 mmHg 53%
    13:00 +33°C° 0 mm 4 mps 735 mmHg 54%
    14:00 +33°C° 0 mm 4 mps 734 mmHg 54%
    15:00 +33°C° 0 mm 4 mps 734 mmHg 54%
    16:00 +30°C° 0 mm 4 mps 734 mmHg 60%
    17:00 +29°C° 0 mm 4 mps 734 mmHg 65%
    18:00 +27°C° 0 mm 3 mps 734 mmHg 71%
    19:00 +26°C° 0 mm 4 mps 735 mmHg 72%
    20:00 +26°C° 0 mm 4 mps 735 mmHg 74%
    21:00 +26°C° 0 mm 4 mps 736 mmHg 75%
    22:00 +25°C° 0 mm 4 mps 736 mmHg 76%
    23:00 +25°C° 0 mm 4 mps 735 mmHg 78%

    21 December, Thursday

    Time Temperature Precipitation Wind Pressure Humidity
    00:00 +25°C° 0 mm 4 mps 735 mmHg 79%
    01:00 +25°C° 0 mm 3 mps 735 mmHg 79%
    02:00 +25°C° 0 mm 3 mps 735 mmHg 80%
    03:00 +25°C° 0 mm 3 mps 734 mmHg 81%
    04:00 +25°C° 0 mm 3 mps 735 mmHg 80%
    05:00 +25°C° 0 mm 3 mps 735 mmHg 80%
    06:00 +25°C° 0 mm 3 mps 736 mmHg 80%
    07:00 +26°C° 0 mm 4 mps 736 mmHg 74%
    08:00 +28°C° 0 mm 4 mps 737 mmHg 68%
    09:00 +30°C° 0 mm 5 mps 737 mmHg 62%
    10:00 +32°C° 0 mm 5 mps 737 mmHg 59%
    11:00 +33°C° 0 mm 4 mps 736 mmHg 56%
    12:00 +34°C° 0 mm 4 mps 736 mmHg 53%
    13:00 +33°C° 0.1 mm 4 mps 735 mmHg 54%
    14:00 +33°C° 0.1 mm 4 mps 735 mmHg 55%
    15:00 +33°C° 0.1 mm 5 mps 734 mmHg 56%
    16:00 +30°C° 0.2 mm 4 mps 734 mmHg 62%
    17:00 +28°C° 0.2 mm 4 mps 735 mmHg 68%
    18:00 +27°C° 0.2 mm 3 mps 735 mmHg 73%
    19:00 +26°C° 0 mm 3 mps 735 mmHg 76%
    20:00 +26°C° 0 mm 3 mps 736 mmHg 78%
    21:00 +25°C° 0 mm 2 mps 736 mmHg 80%
    22:00 +25°C° 0 mm 2 mps 736 mmHg 81%
    23:00 +24°C° 0 mm 2 mps 736 mmHg 82%
    Show more